Timeline UpdatesTrip UpdatesNews PostsPvt PostsTravel TipsAdmin PostsConv PostsFollowed PostsChat RequestsBlog PostsPNR Posts

Disclaimer
Search
 
 
Wed Aug 20, 2014 22:03:28 ISTHomeTrainsΣChainsAtlasPNRForumGalleryNewsFAQTripsMembersLoginFeedback
No Recent News for this Train
Other Trains in the News **new
Latest...
.
Tue Feb 04, 2014 (11:44PM)
⇐ Return Journey: Train# 59049

59050/Viramgam Valsad Passenger (UnReserved)

Feb 06 2014 (11:38AM)
Change Departure Station:
Change Arrival Station:
Post a Train Travel TipPost a Train Travel Tip **new
Post a Comment/Question/Picture/VideoPost a Comment/Question/Picture/Video
Pantry/Catering
✕ NO Pantry Car
✕ NO Catering
RSA - Rake Sharing
Rake/Coach Composition
LOCO-SLR-GEN*16-SLR; As seen at Ahmedabad.
Loco
BRC WAG 5 HA
News    PNR    Forum    Time-Table    Availability    Fare Chart    Map    Arr/Dep History    Trips    Gallery    ΣChains    X/O    Timeline    
Travel Time: 11h 53m    56 halts    Distance: 316 km    Avg Speed: 26 km/hr
Type: Passenger
Zone: WR/Western
Departs @ 07:30 (Avg on time)
Platform# ???
SMTWTFS
Viramgam Junction/VG 
Arrives @ 19:23 (Avg 20m late)
Platform# 3
SMTWTFS
Maroli/MRL 

56 halts. 65 intermediate Stations between Viramgam Junction and Maroli

Show ALL intermediate Stations  Show Old Time-Table

#CodeStation NameX/OArrivesAvgDepartsAvgHaltPFDay#KmSpeedElevZoneAddress
1VG»Viramgam Junction (5)»  -07:30+0--10.05729mWRViramgam, Gujarat
2JKAJakhvadaX  07:43+607:44+71m--112.49231mWRState Highway 17, Gujarat
3VCNVirochannagarX  07:49-07:50-1m--120.03433mWRState Highway 17, Gujarat
4CEChharodiX  08:01+608:02+71m--126.33829mWRSH 17, Gujarat
5WSEVasan IyawaX  08:11-08:12-1m--132.04336mWRState Highway 17, Gujarat
6SAUSanandX  08:19+508:20+61m--137.03840mWRSanand, Gujarat
7GGMGora GhumaXO  08:30-08:31-1m--143.33545mWRParthna Upvan Rd, Gujarat
8ABDAmbli RoadXO  08:40+208:41+61m--148.64350mWRAhmedabad, Gujarat
9CLDYChandlodiya  08:49+608:50+71m--154.33759mWRAhmedabad, Gujarat
10SBISabarmati Junction (3)  08:59-09:00-1m3159.91355mWRAhmadabad, Gujarat
11ADIAhmedabad Junction (12)XO  09:25+1010:15+250m5165.31751mWRAhmedabad, Gujarat
12MANManinagar (2)  10:26+110:27+11m1168.54150mWRAhmadabad, Gujarat
13VTAVatva (4)X  10:34+310:35+51m--173.31749mWRDist. Ahmedabad 382445, Gujarat
14GERGeratpur (2)  10:54+410:55+71m--178.63444mWRAhmadabad, Gujarat
15BJDBarejadi Nandej (3)XO  11:01+611:02+61m--182.03342mWRBareja-Barejadi Rd, Gujarat
16KANJKanij (3)  11:10+611:11+91m--186.31739mWRBareja-Barejadi Rd, Gujarat
17NEPNenpur (2)  11:21-11:22-1m--189.24235mWRState Highway 3, Gujarat
18MHDMahemdavad Kheda Road (4)  11:28+511:29+91m--193.35037mWRMahemdavad, Gujarat
19GTEGothaj (2)  11:39+911:40+141m--1101.75032mWRState Highway 3, Gujarat
20NDNadiad Junction (4)X  11:51+1411:53+142m11110.95537mWRNadiad, Gujarat
21UTDUtarsanda (4)X  11:59+1612:00+181m--1116.44140mWRUttarsanda, Gujarat
22KBRVKanjari Boriyavi Junction (4)X  12:08+1712:09+211m--1121.94539mWRKanjari, Gujarat
23ANNDAnand Junction (6)  12:19+2212:22+213m11129.44644mWRAnand, Gujarat
24VXDVadod (3)XO  12:31+2112:32+251m--1136.21744mWRAnand District, Gujarat
25ADDAdas Road (4)XO  12:46+1812:47+201m--1140.32542mWRNational Highway 8, Gujarat
26VDAVasad Junction (3)X  12:58+1512:59+181m--1144.94340mWRVasad, Gujarat
27NDRNandesari (2)  13:06-13:07-1m--1149.93542mWRNandesari, Gujarat
28RNORanoli (2)  13:14+1713:15+181m--1154.11339mWRVadodara District, Gujarat
29BJWBajva (3)X  13:33+1213:34+151m--1157.91238mWRVadodara, Gujarat
30BRCVadodara Junction (7)X  14:10+1114:20+1410m21165.13036mWRVadodara 390005, Gujarat
31VSVishvamitri (4)  14:26+1914:27+201m--1168.14930mWRVadodara, Gujarat
32MPRMakarpura (4)  14:34+2114:35+211m--1173.86730mWRVadodara, Gujarat
33VRMVarnama (2)  14:40+2514:41+261m--1179.44728mWRVadodara, Gujarat
34ITAItola (4)  14:46+2814:47+291m--1183.44627mWRNational Highway 8 Vadodara, Gujarat
35KSPRKashipura Sarar (2)  14:52+3114:53+331m--1187.26726mWRGIDC Industrial Area, Gujarat
36MYGMiyagam Karjan (2)X  15:00+3615:01+381m11194.95329mWRKarjan, Gujarat
37LKDLakodara (4)X  15:10+3715:11+391m--1203.03626mWRNH 8, Gujarat
38PLJPalej (4)  15:23+3715:24+401m--1210.23029mWRPalej, Gujarat
39VREVarediya (4)X  15:37+3515:38+361m--1216.85121mWRNH 8, Gujarat
40NIUNabipur (3)X  15:46+3715:47+401m--1223.64724mWRNabipur, Gujarat
41CVJChavaj (2)XO  15:56+4315:57+431m--1230.6820mWRBharuch, Gujarat
42BHBharuch Junction (5)X  16:35+1916:40+205m41235.67019mWRBharuch, Gujarat
43AKVAnkleshwar Junction (4)X  16:48+2416:49+271m21245.06119mWRAnkleshwar, Gujarat
44SNJLSanjali (2)  16:55-16:56-1m21251.12823mWRSanjali, Gujarat
45PAOPanoli (3)X  17:05+2817:06+341m21255.31329mWRPanoli, Gujarat
46HATHathuran (2)XO  17:24-17:25-1m21259.14432mWRKosamba, Gujarat
47KSBKosamba Junction (3)X  17:31+2217:32+231m21263.54230mWRKosamba, Gujarat
48KIMKim (2)X  17:43+2217:44+251m21271.31418mWRNH 8, Gujarat
49KDSDKudsad (2)X  17:56-17:57-1m--1274.15418mWRNH 8, Gujarat
50SYNSayan (3)X  18:05+1918:06+201m21281.23021mWRSayan Satellite town, Gujarat
51GTXGothangam (2)  18:12+1818:13+201m21284.23719mWRAmroli Sayan Rd, Gujarat
52KSEKosad (2)XO  18:19+2018:20+211m21287.81417mWRSurat, Gujarat
53URNUtran (3)  18:34+1518:35+171m21291.01515mWRSurat, Gujarat
54STSurat (4)X  18:50+1318:55+135m31294.93419mWRSurat 395001, Gujarat
55UDNUdhna Junction (3)  19:02+1719:03+171m21298.94816mWRUdhna 394210, Gujarat
56BHETBhestan (2)X  19:09+1819:10+191m21303.75713mWRSurat, Gujarat
57SCHSachin (3)X  19:16+2019:17+201m21309.46611mWRKansad Road Sachin, Gujarat
58MRL•Maroli (3)•X  19:23+2019:24+201m31316.15115mWRMaroli, Gujarat
59NVSNavsari (3)X  19:34+1819:35+191m21324.55614mWRNavsari, Gujarat
60VDHVedchha (3)X  19:44+2119:45+211m31332.94013mWRNavsari, Gujarat
61ACLAncheli (2)X  19:50-19:51-1m21336.34620mWRNavsari, Gujarat
62AMLAmalsad (3)X  19:56+2119:57+211m21340.15612mWRAmalsad, Gujarat
63BIMBilimora Junction (4)XO  20:03+2120:04+231m21345.74011mWRBilimora, Gujarat
64JRSJoravasan (2)XO  20:10-20:11-1m21349.65115mWRJoravasan, Gujarat
65DGIDungri (3)  20:17+2120:18+231m21354.72020mWRNH 8, Gujarat
66BLValsad (3)  20:45+9-31363.6-15mWRValsad, Gujarat
Scroll to Top
Scroll to Bottom